Regional Weather Roundup
Issued by NWS

Home | Current Version | Previous Version | Graphics & Text | Print | Product List | Glossary On
Versions: 1 2 3 4 5 6 7 8 9 10 11 12 13 14 15 16 17 18 19 20 21 22 23 24 25 26 27 28 29 30 31 32 33 34 35 36 37 38 39 40 41 42 43 44 45 46 47 48 49 50
000
ASUS43 KIND 021759
RWRIN

WEATHER ROUNDUP FOR INDIANA
NATIONAL WEATHER SERVICE INDIANAPOLIS IN
200 PM EDT SUN AUG 02 2015

NOTE: "FAIR" INDICATES FEW OR NO CLOUDS BELOW 12,000 FEET WITH NO
SIGNIFICANT WEATHER AND/OR OBSTRUCTIONS TO VISIBILITY.

* - STATION DOES NOT REPORT WEATHER SUCH AS PRECIPITATION OR FOG.

+ - STATION NOT QUALITY CONTROLLED BY THE NATIONAL WEATHER SERVICE.
    USE DATA WITH CAUTION...ESPECIALLY DEWPOINT AND RELATIVE
    HUMIDITY OBSERVATIONS.

INZ001>003-010>013-019-020-021900-
NORTHWEST INDIANA

CITY           SKY/WX    TMP DP  RH WIND       PRES   REMARKS
GARY /AIRPORT/ MOSUNNY   90  63  40 SW21G37   29.81F

$$

LMZ046-743>745-021900-
SOUTHERN LAKE MICHIGAN

STATION/POSITION TIME  TEMP    WIND        PRES    WAVE
                       AIR SEA DIR/SP/G            HT
                 (UTC) (F)     (DEG/KT/KT) (MB)    (FT)
BURNS HARBOR     1727   86     230/ 16/ 26 1009.5F
MICHIGAN CITY    1700   83     200/ 19/ 24   N/A
5NW MICH CITY    1700   79 74  240/ 12/ 16   N/A     2

$$

INZ004-005-014>016-021>024-021900-
NORTH CENTRAL INDIANA

CITY           SKY/WX    TMP DP  RH WIND       PRES   REMARKS
GOSHEN         SUNNY     87  69  54 SW20G26   29.84F
6HR MIN TEMP:  67; 6HR MAX TEMP:  87;

SOUTH BEND     NOT AVBL

$$

INZ006>009-017-018-025>027-021900-
NORTHEAST INDIANA

CITY           SKY/WX    TMP DP  RH WIND       PRES   REMARKS
ANGOLA *+      SUNNY     88  82  84 W12       29.85F HX 108
FORT WAYNE     NOT AVBL

$$

INZ028-029-035-036-043>045-051>053-021900-
WEST CENTRAL INDIANA

CITY           SKY/WX    TMP DP  RH WIND       PRES   REMARKS
GREENCASTLE +  SUNNY     82  64  54 S7        29.95S
LAFAYETTE      NOT AVBL
TERRE HAUTE    SUNNY     88  69  53 SW12G20   29.93F
6HR MIN TEMP:  65; 6HR MAX TEMP:  88;


$$

INZ030>032-037>040-046>048-054>057-064-065-021900-
CENTRAL INDIANA

CITY           SKY/WX    TMP DP  RH WIND       PRES   REMARKS
COLUMBUS       SUNNY     86  50  28 SW7       29.96F
GREENWOOD *+   SUNNY     84  63  48 W9        29.96F
INDIANAPOLIS   NOT AVBL
-EAGLE CREEK   SUNNY     85  66  53 SW8       29.93F
6HR MIN TEMP:  67; 6HR MAX TEMP:  85;

SHELBYVILLE    SUNNY     86  67  52 SW12      29.95F
6HR MIN TEMP:  67; 6HR MAX TEMP:  86;


$$

INZ033-034-041-042-049-050-058-059-021900-
EAST CENTRAL INDIANA

CITY           SKY/WX    TMP DP  RH WIND       PRES   REMARKS
MUNCIE         SUNNY     84  65  52 S10       29.93F
6HR MIN TEMP:  67; 6HR MAX TEMP:  84;


$$

INZ060-061-067>069-081>083-085>088-021900-
SOUTHWEST INDIANA

CITY           SKY/WX    TMP DP  RH WIND       PRES   REMARKS
EVANSVILLE     NOT AVBL

$$

INZ062-063-066-070>080-084-089>092-021900-
SOUTH CENTRAL AND SOUTHEAST INDIANA

CITY           SKY/WX    TMP DP  RH WIND       PRES   REMARKS
BLOOMINGTON    SUNNY     85  65  51 SW8       29.97S
6HR MIN TEMP:  64; 6HR MAX TEMP:  85;

SEYMOUR +      SUNNY     88  63  42 SW7       29.96F

$$




USA.gov is the U.S. government's official web portal to all federal, state and local government web resources and services.